Location: Newark
(35.2672°N, 80.7344°W)
Time: 11:19:05
(UTC+00:00)

Vanguard 2 Rocket - Pass Details

Date: 23 January 2020
Orbit: 553 x 3327 km, 32.9° (Epoch: 26 February)

Event Time Altitude Azimuth Distance (km) Brightness Sun altitude
Rises 18:04:21 0° 271° (W) 5,089 10.8 34.8°
Reaches altitude 10° 18:08:23 10° 257° (WSW) 4,520 10.8 34.7°
Maximum altitude 18:17:38 22° 212° (SSW) 4,388 12.0 34.4°
Drops below altitude 10° 18:29:51 10° 170° (S) 6,053 12.2 33.8°
Sets 18:36:44 0° 158° (SSE) 7,266 12.1 33.4°
